Time,TemperatureF,DewpointF,PressureIn,WindDirection,WindDirectionDegrees,WindSpeedMPH,WindSpeedGustMPH,Humidity,HourlyPrecipIn,Conditions,Clouds,dailyrainin,SoftwareType,DateUTC
2013-01-21 00:02:00,10.9,8.0,25.92,West,270,4.7,6.3,85,0.00,,,0.00,Rainwise IP-100,2013-01-21 07:02:00,
2013-01-21 00:07:00,10.6,8.0,25.92,WNW,292,4.9,5.8,85,0.00,,,0.00,Rainwise IP-100,2013-01-21 07:07:00,
2013-01-21 00:12:00,10.6,8.0,25.91,WNW,292,3.5,5.4,86,0.00,,,0.00,Rainwise IP-100,2013-01-21 07:12:00,
2013-01-21 00:17:00,10.5,8.0,25.91,West,270,5.4,5.6,86,0.00,,,0.00,Rainwise IP-100,2013-01-21 07:17:00,
2013-01-21 00:22:00,10.5,8.0,25.92,WNW,292,6.3,7.0,86,0.00,,,0.00,Rainwise IP-100,2013-01-21 07:22:00,
2013-01-21 00:27:00,10.4,8.0,25.90,WNW,292,4.9,8.4,86,0.00,,,0.00,Rainwise IP-100,2013-01-21 07:27:00,
2013-01-21 00:32:00,10.6,8.0,25.91,WNW,292,4.9,7.2,86,0.00,,,0.00,Rainwise IP-100,2013-01-21 07:32:00,
2013-01-21 00:37:00,11.0,8.0,25.90,WNW,292,4.7,7.9,87,0.00,,,0.00,Rainwise IP-100,2013-01-21 07:37:00,
2013-01-21 00:42:00,11.2,8.0,25.90,West,270,3.7,7.7,87,0.00,,,0.00,Rainwise IP-100,2013-01-21 07:42:00,
2013-01-21 00:47:00,11.2,8.0,25.91,West,270,4.0,7.0,87,0.00,,,0.00,Rainwise IP-100,2013-01-21 07:47:00,
2013-01-21 00:52:00,11.3,8.0,25.91,West,270,2.6,5.8,87,0.00,,,0.00,Rainwise IP-100,2013-01-21 07:52:00,
2013-01-21 00:57:00,11.3,8.0,25.91,West,270,2.6,5.6,87,0.00,,,0.00,Rainwise IP-100,2013-01-21 07:57:00,
2013-01-21 01:02:00,11.2,8.0,25.90,West,270,3.3,5.6,87,0.00,,,0.00,Rainwise IP-100,2013-01-21 08:02:00,
2013-01-21 01:07:00,11.1,8.0,25.90,West,270,3.0,4.4,87,0.00,,,0.00,Rainwise IP-100,2013-01-21 08:07:00,
2013-01-21 01:12:00,11.0,8.0,25.90,WSW,247,4.4,5.1,87,0.00,,,0.00,Rainwise IP-100,2013-01-21 08:12:00,
2013-01-21 01:17:00,10.6,8.0,25.90,West,270,4.2,6.3,86,0.00,,,0.00,Rainwise IP-100,2013-01-21 08:17:00,
2013-01-21 01:22:00,10.4,8.0,25.90,West,270,4.4,5.6,86,0.00,,,0.00,Rainwise IP-100,2013-01-21 08:22:00,
2013-01-21 01:27:00,10.4,8.0,25.90,WSW,247,4.7,6.3,87,0.00,,,0.00,Rainwise IP-100,2013-01-21 08:27:00,
2013-01-21 01:32:00,10.5,8.0,25.89,West,270,2.3,6.8,87,0.00,,,0.00,Rainwise IP-100,2013-01-21 08:32:00,
2013-01-21 01:37:00,10.7,8.0,25.90,West,270,3.0,6.8,86,0.00,,,0.00,Rainwise IP-100,2013-01-21 08:37:00,
2013-01-21 01:42:00,10.6,8.0,25.90,West,270,3.7,5.6,86,0.00,,,0.00,Rainwise IP-100,2013-01-21 08:42:00,
2013-01-21 01:47:00,10.3,8.0,25.90,WNW,292,4.4,4.7,86,0.00,,,0.00,Rainwise IP-100,2013-01-21 08:47:00,
2013-01-21 01:52:00,10.0,8.0,25.90,WNW,292,4.0,5.8,86,0.00,,,0.00,Rainwise IP-100,2013-01-21 08:52:00,
2013-01-21 01:57:00,9.8,8.0,25.90,WNW,292,3.7,5.4,86,0.00,,,0.00,Rainwise IP-100,2013-01-21 08:57:00,
2013-01-21 02:03:00,9.9,8.0,25.91,NW,315,5.1,5.8,86,0.00,,,0.00,Rainwise IP-100,2013-01-21 09:03:00,
2013-01-21 02:08:00,10.1,8.0,25.91,NW,315,4.0,5.6,86,0.00,,,0.00,Rainwise IP-100,2013-01-21 09:08:00,
2013-01-21 02:13:00,10.3,8.0,25.90,NNW,337,2.6,4.9,87,0.00,,,0.00,Rainwise IP-100,2013-01-21 09:13:00,
2013-01-21 02:18:00,10.6,8.0,25.90,NNW,337,2.6,4.2,87,0.00,,,0.00,Rainwise IP-100,2013-01-21 09:18:00,
2013-01-21 02:23:00,11.1,8.0,25.90,NNW,337,3.3,4.9,88,0.00,,,0.00,Rainwise IP-100,2013-01-21 09:23:00,
2013-01-21 02:28:00,11.3,8.0,25.90,NNW,337,4.4,5.6,88,0.00,,,0.00,Rainwise IP-100,2013-01-21 09:28:00,
2013-01-21 02:33:00,11.1,8.0,25.90,NNW,337,2.1,5.1,88,0.00,,,0.00,Rainwise IP-100,2013-01-21 09:33:00,
2013-01-21 02:38:00,11.0,8.0,25.90,NNW,337,0.0,3.3,88,0.00,,,0.00,Rainwise IP-100,2013-01-21 09:38:00,
2013-01-21 02:43:00,10.9,8.0,25.90,NNW,337,1.6,1.6,88,0.00,,,0.00,Rainwise IP-100,2013-01-21 09:43:00,
2013-01-21 02:48:00,10.8,8.0,25.90,NNE,22,1.2,2.6,88,0.00,,,0.00,Rainwise IP-100,2013-01-21 09:48:00,
2013-01-21 02:53:00,10.7,8.0,25.90,NE,45,2.3,2.6,88,0.00,,,0.00,Rainwise IP-100,2013-01-21 09:53:00,
2013-01-21 02:58:00,10.5,8.0,25.90,NE,45,2.1,3.3,88,0.00,,,0.00,Rainwise IP-100,2013-01-21 09:58:00,
2013-01-21 03:03:00,10.2,8.0,25.90,NE,45,1.9,2.8,88,0.00,,,0.00,Rainwise IP-100,2013-01-21 10:03:00,
2013-01-21 03:08:00,9.9,8.0,25.89,NE,45,1.4,3.0,88,0.00,,,0.00,Rainwise IP-100,2013-01-21 10:08:00,
2013-01-21 03:13:00,10.1,8.0,25.89,NE,45,1.2,2.6,88,0.00,,,0.00,Rainwise IP-100,2013-01-21 10:13:00,
2013-01-21 03:18:00,10.4,8.0,25.89,NE,45,0.0,1.6,89,0.00,,,0.00,Rainwise IP-100,2013-01-21 10:18:00,
2013-01-21 03:23:00,10.2,8.0,25.88,NE,45,0.0,0.0,89,0.00,,,0.00,Rainwise IP-100,2013-01-21 10:23:00,
2013-01-21 03:28:00,10.0,8.0,25.89,NE,45,0.0,0.0,89,0.00,,,0.00,Rainwise IP-100,2013-01-21 10:28:00,
2013-01-21 03:33:00,9.9,8.0,25.89,NE,45,0.0,0.0,89,0.00,,,0.00,Rainwise IP-100,2013-01-21 10:33:00,
2013-01-21 03:38:00,9.8,8.0,25.89,NE,45,0.0,0.0,89,0.00,,,0.00,Rainwise IP-100,2013-01-21 10:38:00,
2013-01-21 03:43:00,9.9,8.0,25.88,NE,45,0.0,0.0,89,0.00,,,0.00,Rainwise IP-100,2013-01-21 10:43:00,
2013-01-21 03:48:00,9.6,8.0,25.88,NE,45,0.0,0.0,88,0.00,,,0.00,Rainwise IP-100,2013-01-21 10:48:00,
2013-01-21 03:53:00,9.4,8.0,25.88,NE,45,0.0,0.0,88,0.00,,,0.00,Rainwise IP-100,2013-01-21 10:53:00,
2013-01-21 03:58:00,9.4,8.0,25.88,SSE,157,1.4,1.4,88,0.00,,,0.00,Rainwise IP-100,2013-01-21 10:58:00,
2013-01-21 04:03:00,9.6,8.0,25.88,SSE,157,0.0,2.1,88,0.00,,,0.00,Rainwise IP-100,2013-01-21 11:03:00,
2013-01-21 04:08:00,9.7,8.0,25.88,SSE,157,0.0,1.4,89,0.00,,,0.00,Rainwise IP-100,2013-01-21 11:08:00,
2013-01-21 04:13:00,9.7,8.0,25.88,SSE,157,0.0,1.2,89,0.00,,,0.00,Rainwise IP-100,2013-01-21 11:13:00,
2013-01-21 04:18:00,9.7,8.0,25.88,SSE,157,0.0,0.0,90,0.00,,,0.00,Rainwise IP-100,2013-01-21 11:18:00,
2013-01-21 04:23:00,9.8,8.0,25.88,SSE,157,0.0,0.0,90,0.00,,,0.00,Rainwise IP-100,2013-01-21 11:23:00,
2013-01-21 04:28:00,9.8,8.0,25.88,SSW,202,2.3,0.0,89,0.00,,,0.00,Rainwise IP-100,2013-01-21 11:28:00,
2013-01-21 04:33:00,10.0,8.0,25.88,WSW,247,4.4,4.4,90,0.00,,,0.00,Rainwise IP-100,2013-01-21 11:33:00,
2013-01-21 04:38:00,10.3,8.0,25.88,WSW,247,2.3,4.9,89,0.00,,,0.00,Rainwise IP-100,2013-01-21 11:38:00,
2013-01-21 04:44:00,9.9,8.0,25.88,WSW,247,3.5,4.0,88,0.00,,,0.00,Rainwise IP-100,2013-01-21 11:44:00,
2013-01-21 04:49:00,9.4,8.0,25.89,SSW,202,3.0,4.0,88,0.00,,,0.00,Rainwise IP-100,2013-01-21 11:49:00,
2013-01-21 04:54:00,9.4,8.0,25.88,SSW,202,2.8,4.2,88,0.00,,,0.00,Rainwise IP-100,2013-01-21 11:54:00,
2013-01-21 04:59:00,9.4,8.0,25.88,SSW,202,2.3,3.7,88,0.00,,,0.00,Rainwise IP-100,2013-01-21 11:59:00,
2013-01-21 05:04:00,9.2,8.0,25.88,WSW,247,2.6,3.5,88,0.00,,,0.00,Rainwise IP-100,2013-01-21 12:04:00,
2013-01-21 05:09:00,9.3,8.0,25.88,WSW,247,2.1,3.5,89,0.00,,,0.00,Rainwise IP-100,2013-01-21 12:09:00,
2013-01-21 05:14:00,9.3,8.0,25.88,WSW,247,1.9,2.6,89,0.00,,,0.00,Rainwise IP-100,2013-01-21 12:14:00,
2013-01-21 05:19:00,9.6,8.0,25.87,WSW,247,1.6,2.6,89,0.00,,,0.00,Rainwise IP-100,2013-01-21 12:19:00,
2013-01-21 05:24:00,9.9,8.0,25.88,WSW,247,3.3,4.2,91,0.00,,,0.00,Rainwise IP-100,2013-01-21 12:24:00,
2013-01-21 05:29:00,9.8,8.0,25.87,West,270,2.6,3.5,90,0.00,,,0.00,Rainwise IP-100,2013-01-21 12:29:00,
2013-01-21 05:34:00,9.3,8.0,25.88,WSW,247,2.1,5.4,89,0.00,,,0.00,Rainwise IP-100,2013-01-21 12:34:00,
2013-01-21 05:39:00,8.9,8.0,25.88,WSW,247,2.8,4.7,89,0.00,,,0.00,Rainwise IP-100,2013-01-21 12:39:00,
2013-01-21 05:44:00,9.1,8.0,25.88,WSW,247,5.4,7.5,89,0.00,,,0.00,Rainwise IP-100,2013-01-21 12:44:00,
2013-01-21 05:49:00,9.8,8.0,25.87,WSW,247,3.5,7.9,90,0.00,,,0.00,Rainwise IP-100,2013-01-21 12:49:00,
2013-01-21 05:54:00,10.5,8.0,25.87,WSW,247,3.3,6.5,90,0.00,,,0.00,Rainwise IP-100,2013-01-21 12:54:00,
2013-01-21 05:59:00,10.9,8.0,25.87,WSW,247,5.1,6.5,91,0.00,,,0.00,Rainwise IP-100,2013-01-21 12:59:00,
2013-01-21 06:04:00,10.9,8.0,25.88,WSW,247,4.9,7.0,90,0.00,,,0.00,Rainwise IP-100,2013-01-21 13:04:00,
2013-01-21 06:09:00,10.7,8.0,25.88,WSW,247,3.0,5.8,90,0.00,,,0.00,Rainwise IP-100,2013-01-21 13:09:00,
2013-01-21 06:14:00,10.3,8.0,25.88,WSW,247,7.0,8.2,90,0.00,,,0.00,Rainwise IP-100,2013-01-21 13:14:00,
2013-01-21 06:19:00,10.4,8.0,25.87,SW,225,4.2,7.2,90,0.00,,,0.00,Rainwise IP-100,2013-01-21 13:19:00,
2013-01-21 06:24:00,10.6,8.0,25.87,WSW,247,3.5,7.2,90,0.00,,,0.00,Rainwise IP-100,2013-01-21 13:24:00,
2013-01-21 06:29:00,10.5,8.0,25.87,SSW,202,2.3,6.5,90,0.00,,,0.00,Rainwise IP-100,2013-01-21 13:29:00,
2013-01-21 06:34:00,10.3,8.0,25.87,SW,225,4.2,7.2,90,0.00,,,0.00,Rainwise IP-100,2013-01-21 13:34:00,
2013-01-21 06:39:00,10.2,8.0,25.87,WSW,247,4.0,5.4,90,0.00,,,0.00,Rainwise IP-100,2013-01-21 13:39:00,
2013-01-21 06:44:00,10.2,8.0,25.88,WSW,247,2.6,5.4,90,0.00,,,0.00,Rainwise IP-100,2013-01-21 13:44:00,
2013-01-21 06:49:00,10.1,8.0,25.87,WSW,247,4.7,5.4,90,0.00,,,0.00,Rainwise IP-100,2013-01-21 13:49:00,
2013-01-21 06:54:00,10.0,8.0,25.87,WSW,247,2.8,4.7,90,0.00,,,0.00,Rainwise IP-100,2013-01-21 13:54:00,
2013-01-21 06:59:00,10.1,8.0,25.87,WSW,247,2.3,4.7,90,0.00,,,0.00,Rainwise IP-100,2013-01-21 13:59:00,
2013-01-21 07:04:00,10.2,8.0,25.87,WSW,247,4.2,6.1,90,0.00,,,0.00,Rainwise IP-100,2013-01-21 14:04:00,
2013-01-21 07:09:00,10.5,8.0,25.87,WSW,247,4.0,6.8,90,0.00,,,0.00,Rainwise IP-100,2013-01-21 14:09:00,
2013-01-21 07:14:00,10.5,8.0,25.87,WSW,247,3.5,5.1,90,0.00,,,0.00,Rainwise IP-100,2013-01-21 14:14:00,
2013-01-21 07:19:00,10.3,8.0,25.87,WSW,247,4.0,7.5,90,0.00,,,0.00,Rainwise IP-100,2013-01-21 14:19:00,
2013-01-21 07:24:00,10.4,8.0,25.87,WSW,247,4.4,6.3,90,0.00,,,0.00,Rainwise IP-100,2013-01-21 14:24:00,
2013-01-21 07:29:00,10.4,8.0,25.87,WSW,247,3.7,6.5,90,0.00,,,0.00,Rainwise IP-100,2013-01-21 14:29:00,
2013-01-21 07:34:00,10.4,8.0,25.87,WSW,247,5.1,6.8,90,0.00,,,0.00,Rainwise IP-100,2013-01-21 14:34:00,
2013-01-21 07:39:00,10.3,8.0,25.87,West,270,4.2,6.8,89,0.00,,,0.00,Rainwise IP-100,2013-01-21 14:39:00,
2013-01-21 07:44:00,10.1,8.0,25.87,WSW,247,6.8,7.9,89,0.00,,,0.00,Rainwise IP-100,2013-01-21 14:44:00,
2013-01-21 07:49:00,10.4,8.0,25.87,West,270,6.8,8.4,89,0.00,,,0.00,Rainwise IP-100,2013-01-21 14:49:00,
2013-01-21 07:54:00,11.0,8.0,25.88,WSW,247,3.7,8.2,90,0.00,,,0.00,Rainwise IP-100,2013-01-21 14:54:00,
2013-01-21 07:59:00,11.7,11.0,25.88,West,270,4.0,8.9,90,0.00,,,0.00,Rainwise IP-100,2013-01-21 14:59:00,
2013-01-21 08:04:00,12.1,11.0,25.88,WSW,247,3.3,6.5,90,0.00,,,0.00,Rainwise IP-100,2013-01-21 15:04:00,
2013-01-21 08:09:00,12.4,11.0,25.88,West,270,3.5,7.7,90,0.00,,,0.00,Rainwise IP-100,2013-01-21 15:09:00,
2013-01-21 08:14:00,12.8,11.0,25.88,West,270,1.6,6.1,90,0.00,,,0.00,Rainwise IP-100,2013-01-21 15:14:00,
2013-01-21 08:19:00,13.4,11.0,25.88,West,270,2.8,5.6,90,0.00,,,0.00,Rainwise IP-100,2013-01-21 15:19:00,
2013-01-21 08:24:00,14.0,11.0,25.88,WSW,247,3.0,5.4,90,0.00,,,0.00,Rainwise IP-100,2013-01-21 15:24:00,
2013-01-21 08:29:00,14.7,14.0,25.88,WSW,247,2.8,5.1,90,0.00,,,0.00,Rainwise IP-100,2013-01-21 15:29:00,
2013-01-21 08:34:00,15.4,14.0,25.88,WSW,247,2.8,4.7,90,0.00,,,0.00,Rainwise IP-100,2013-01-21 15:34:00,
2013-01-21 08:39:00,15.9,14.0,25.88,WSW,247,5.4,6.8,89,0.00,,,0.00,Rainwise IP-100,2013-01-21 15:39:00,
2013-01-21 08:44:00,16.6,16.0,25.88,SW,225,4.7,7.9,89,0.00,,,0.00,Rainwise IP-100,2013-01-21 15:44:00,
2013-01-21 08:49:00,17.7,16.0,25.87,WSW,247,6.3,10.0,88,0.00,,,0.00,Rainwise IP-100,2013-01-21 15:49:00,
2013-01-21 08:54:00,18.9,18.0,25.87,SW,225,5.8,10.7,88,0.00,,,0.00,Rainwise IP-100,2013-01-21 15:54:00,
2013-01-21 08:59:00,19.9,18.0,25.87,WSW,247,7.2,11.2,87,0.00,,,0.00,Rainwise IP-100,2013-01-21 15:59:00,
2013-01-21 09:04:00,20.6,16.0,25.88,WSW,247,6.5,10.5,86,0.00,,,0.00,Rainwise IP-100,2013-01-21 16:04:00,
2013-01-21 09:09:00,21.2,16.0,25.88,WSW,247,7.5,11.4,85,0.00,,,0.00,Rainwise IP-100,2013-01-21 16:09:00,
2013-01-21 09:14:00,21.7,18.0,25.87,SW,225,10.7,11.0,84,0.00,,,0.00,Rainwise IP-100,2013-01-21 16:14:00,
2013-01-21 09:19:00,22.1,18.0,25.88,WSW,247,5.8,11.2,84,0.00,,,0.00,Rainwise IP-100,2013-01-21 16:19:00,
2013-01-21 09:24:00,22.6,18.0,25.87,WSW,247,9.8,11.9,83,0.00,,,0.00,Rainwise IP-100,2013-01-21 16:24:00,
2013-01-21 09:29:00,23.1,18.0,25.88,SSW,202,4.2,10.3,82,0.00,,,0.00,Rainwise IP-100,2013-01-21 16:29:00,
2013-01-21 09:34:00,23.6,21.0,25.88,SW,225,9.1,12.1,81,0.00,,,0.00,Rainwise IP-100,2013-01-21 16:34:00,
2013-01-21 09:39:00,24.0,21.0,25.88,SSW,202,6.3,9.6,81,0.00,,,0.00,Rainwise IP-100,2013-01-21 16:39:00,
2013-01-21 09:44:00,24.5,21.0,25.88,WSW,247,7.9,11.2,80,0.00,,,0.00,Rainwise IP-100,2013-01-21 16:44:00,
2013-01-21 09:49:00,25.0,21.0,25.88,SSW,202,4.0,11.4,79,0.00,,,0.00,Rainwise IP-100,2013-01-21 16:49:00,
2013-01-21 09:54:00,25.3,21.0,25.88,SW,225,4.2,11.7,78,0.00,,,0.00,Rainwise IP-100,2013-01-21 16:54:00,
2013-01-21 09:59:00,26.0,21.0,25.87,SSW,202,6.5,10.7,77,0.00,,,0.00,Rainwise IP-100,2013-01-21 16:59:00,
2013-01-21 10:04:00,26.7,21.0,25.87,SSW,202,5.4,12.6,76,0.00,,,0.00,Rainwise IP-100,2013-01-21 17:04:00,
2013-01-21 10:09:00,27.2,21.0,25.87,WSW,247,7.5,11.4,75,0.00,,,0.00,Rainwise IP-100,2013-01-21 17:09:00,
2013-01-21 10:14:00,27.7,21.0,25.88,WSW,247,6.8,10.3,74,0.00,,,0.00,Rainwise IP-100,2013-01-21 17:14:00,
2013-01-21 10:19:00,28.3,21.0,25.88,WSW,247,7.5,11.2,72,0.00,,,0.00,Rainwise IP-100,2013-01-21 17:19:00,
2013-01-21 10:24:00,28.9,21.0,25.87,WSW,247,7.7,10.5,71,0.00,,,0.00,Rainwise IP-100,2013-01-21 17:24:00,
2013-01-21 10:29:00,29.4,21.0,25.87,SW,225,6.1,10.5,69,0.00,,,0.00,Rainwise IP-100,2013-01-21 17:29:00,
2013-01-21 10:34:00,30.0,23.0,25.86,SW,225,6.8,9.3,68,0.00,,,0.00,Rainwise IP-100,2013-01-21 17:34:00,
2013-01-21 10:39:00,30.6,21.0,25.86,SSW,202,5.8,11.2,67,0.00,,,0.00,Rainwise IP-100,2013-01-21 17:39:00,
2013-01-21 10:44:00,30.9,21.0,25.87,SW,225,7.7,11.0,65,0.00,,,0.00,Rainwise IP-100,2013-01-21 17:44:00,
2013-01-21 10:49:00,31.3,21.0,25.86,South,180,3.0,9.8,64,0.00,,,0.00,Rainwise IP-100,2013-01-21 17:49:00,
2013-01-21 10:54:00,32.2,21.0,25.86,SSW,202,6.8,10.5,63,0.00,,,0.00,Rainwise IP-100,2013-01-21 17:54:00,
2013-01-21 10:59:00,32.8,23.0,25.86,SSW,202,6.1,8.6,62,0.00,,,0.00,Rainwise IP-100,2013-01-21 17:59:00,
2013-01-21 11:04:00,33.3,21.0,25.85,SSW,202,7.2,7.7,60,0.00,,,0.00,Rainwise IP-100,2013-01-21 18:04:00,
2013-01-21 11:09:00,34.0,23.0,25.85,WSW,247,8.6,11.7,59,0.00,,,0.00,Rainwise IP-100,2013-01-21 18:09:00,
2013-01-21 11:14:00,34.3,23.0,25.84,SSW,202,6.3,10.5,58,0.00,,,0.00,Rainwise IP-100,2013-01-21 18:14:00,
2013-01-21 11:19:00,35.1,21.0,25.84,SSW,202,10.0,11.2,57,0.00,,,0.00,Rainwise IP-100,2013-01-21 18:19:00,
2013-01-21 11:24:00,35.7,23.0,25.84,WSW,247,8.9,11.9,55,0.00,,,0.00,Rainwise IP-100,2013-01-21 18:24:00,
2013-01-21 11:29:00,36.4,21.0,25.84,SSW,202,3.5,11.2,54,0.00,,,0.00,Rainwise IP-100,2013-01-21 18:29:00,
2013-01-21 11:34:00,37.0,21.0,25.84,SSW,202,10.3,11.2,52,0.00,,,0.00,Rainwise IP-100,2013-01-21 18:34:00,
2013-01-21 11:39:00,37.6,23.0,25.83,WSW,247,10.5,12.4,51,0.00,,,0.00,Rainwise IP-100,2013-01-21 18:39:00,
2013-01-21 11:44:00,38.1,23.0,25.83,SSW,202,8.6,11.9,50,0.00,,,0.00,Rainwise IP-100,2013-01-21 18:44:00,
2013-01-21 11:49:00,38.8,23.0,25.83,WSW,247,10.3,11.9,48,0.00,,,0.00,Rainwise IP-100,2013-01-21 18:49:00,
2013-01-21 11:54:00,39.6,23.0,25.82,WSW,247,7.2,15.2,46,0.00,,,0.00,Rainwise IP-100,2013-01-21 18:54:00,
2013-01-21 11:59:00,40.1,21.0,25.82,SW,225,5.6,12.4,45,0.00,,,0.00,Rainwise IP-100,2013-01-21 18:59:00,
2013-01-21 12:04:00,40.7,21.0,25.82,WSW,247,12.8,14.0,44,0.00,,,0.00,Rainwise IP-100,2013-01-21 19:04:00,
2013-01-21 12:09:00,41.4,21.0,25.81,WSW,247,11.9,14.7,42,0.00,,,0.00,Rainwise IP-100,2013-01-21 19:09:00,
2013-01-21 12:14:00,42.2,21.0,25.81,SSW,202,9.8,14.0,41,0.00,,,0.00,Rainwise IP-100,2013-01-21 19:14:00,
2013-01-21 12:19:00,42.8,21.0,25.81,WSW,247,7.5,14.2,40,0.00,,,0.00,Rainwise IP-100,2013-01-21 19:19:00,
2013-01-21 12:24:00,43.2,21.0,25.80,SW,225,10.7,13.3,39,0.00,,,0.00,Rainwise IP-100,2013-01-21 19:24:00,
2013-01-21 12:29:00,43.4,21.0,25.80,WSW,247,7.0,14.0,38,0.00,,,0.00,Rainwise IP-100,2013-01-21 19:29:00,
2013-01-21 12:34:00,43.6,21.0,25.81,WSW,247,9.3,14.0,37,0.00,,,0.00,Rainwise IP-100,2013-01-21 19:34:00,
2013-01-21 12:39:00,44.4,18.0,25.80,WSW,247,8.4,15.9,36,0.00,,,0.00,Rainwise IP-100,2013-01-21 19:39:00,
2013-01-21 12:44:00,45.0,21.0,25.80,WSW,247,10.0,14.9,35,0.00,,,0.00,Rainwise IP-100,2013-01-21 19:44:00,
2013-01-21 12:49:00,45.8,18.0,25.80,WSW,247,9.6,15.2,33,0.00,,,0.00,Rainwise IP-100,2013-01-21 19:49:00,
2013-01-21 12:54:00,46.3,18.0,25.80,SW,225,9.6,15.9,32,0.00,,,0.00,Rainwise IP-100,2013-01-21 19:54:00,
2013-01-21 12:59:00,46.5,18.0,25.80,WSW,247,11.9,15.2,31,0.00,,,0.00,Rainwise IP-100,2013-01-21 19:59:00,
2013-01-21 13:04:00,47.0,18.0,25.80,WSW,247,6.8,15.9,30,0.00,,,0.00,Rainwise IP-100,2013-01-21 20:04:00,
2013-01-21 13:09:00,47.7,18.0,25.80,WSW,247,6.1,14.2,29,0.00,,,0.00,Rainwise IP-100,2013-01-21 20:09:00,
2013-01-21 13:14:00,48.1,18.0,25.79,WNW,292,10.7,18.7,28,0.00,,,0.00,Rainwise IP-100,2013-01-21 20:14:00,
2013-01-21 13:19:00,48.3,16.0,25.79,SW,225,12.8,16.3,27,0.00,,,0.00,Rainwise IP-100,2013-01-21 20:19:00,
2013-01-21 13:24:00,48.7,16.0,25.79,SSW,202,12.6,13.8,26,0.00,,,0.00,Rainwise IP-100,2013-01-21 20:24:00,
2013-01-21 13:29:00,48.9,16.0,25.79,SSW,202,5.8,16.1,26,0.00,,,0.00,Rainwise IP-100,2013-01-21 20:29:00,
2013-01-21 13:34:00,49.3,16.0,25.78,SSW,202,10.3,14.5,25,0.00,,,0.00,Rainwise IP-100,2013-01-21 20:34:00,
2013-01-21 13:39:00,49.8,16.0,25.78,SSW,202,5.1,14.0,24,0.00,,,0.00,Rainwise IP-100,2013-01-21 20:39:00,
2013-01-21 13:44:00,50.1,16.0,25.78,SSW,202,12.6,14.7,24,0.00,,,0.00,Rainwise IP-100,2013-01-21 20:44:00,
2013-01-21 13:49:00,50.0,14.0,25.78,SSW,202,10.3,14.7,23,0.00,,,0.00,Rainwise IP-100,2013-01-21 20:49:00,
2013-01-21 13:54:00,50.0,14.0,25.78,SSW,202,7.9,14.5,23,0.00,,,0.00,Rainwise IP-100,2013-01-21 20:54:00,
2013-01-21 13:59:00,50.1,14.0,25.78,SSW,202,8.4,14.2,23,0.00,,,0.00,Rainwise IP-100,2013-01-21 20:59:00,
2013-01-21 14:04:00,50.3,16.0,25.78,SW,225,9.3,14.5,23,0.00,,,0.00,Rainwise IP-100,2013-01-21 21:04:00,
2013-01-21 14:09:00,50.8,14.0,25.78,WSW,247,4.7,13.3,22,0.00,,,0.00,Rainwise IP-100,2013-01-21 21:09:00,
2013-01-21 14:14:00,51.1,14.0,25.78,SW,225,8.4,14.7,22,0.00,,,0.00,Rainwise IP-100,2013-01-21 21:14:00,
2013-01-21 14:19:00,51.0,14.0,25.78,SSW,202,10.3,13.3,22,0.00,,,0.00,Rainwise IP-100,2013-01-21 21:19:00,
2013-01-21 14:24:00,50.7,14.0,25.78,SSW,202,10.0,12.8,22,0.00,,,0.00,Rainwise IP-100,2013-01-21 21:24:00,
2013-01-21 14:29:00,50.9,14.0,25.78,SSW,202,10.0,12.6,22,0.00,,,0.00,Rainwise IP-100,2013-01-21 21:29:00,
2013-01-21 14:34:00,51.1,14.0,25.77,SW,225,5.8,11.9,22,0.00,,,0.00,Rainwise IP-100,2013-01-21 21:34:00,
2013-01-21 14:39:00,51.2,14.0,25.77,SW,225,14.5,14.7,21,0.00,,,0.00,Rainwise IP-100,2013-01-21 21:39:00,
2013-01-21 14:44:00,51.4,14.0,25.77,WSW,247,7.7,14.7,21,0.00,,,0.00,Rainwise IP-100,2013-01-21 21:44:00,
2013-01-21 14:49:00,51.6,14.0,25.77,SSW,202,2.8,13.5,21,0.00,,,0.00,Rainwise IP-100,2013-01-21 21:49:00,
2013-01-21 14:54:00,51.9,14.0,25.77,SSW,202,9.1,13.3,20,0.00,,,0.00,Rainwise IP-100,2013-01-21 21:54:00,
2013-01-21 14:59:00,51.9,14.0,25.77,SW,225,10.5,14.9,20,0.00,,,0.00,Rainwise IP-100,2013-01-21 21:59:00,
2013-01-21 15:04:00,51.9,14.0,25.77,SSW,202,5.8,11.2,20,0.00,,,0.00,Rainwise IP-100,2013-01-21 22:04:00,
2013-01-21 15:09:00,52.0,14.0,25.77,SSW,202,11.0,14.2,20,0.00,,,0.00,Rainwise IP-100,2013-01-21 22:09:00,
2013-01-21 15:14:00,52.0,14.0,25.77,SSW,202,7.5,13.5,20,0.00,,,0.00,Rainwise IP-100,2013-01-21 22:14:00,
2013-01-21 15:19:00,52.2,11.0,25.76,SSW,202,7.0,13.8,19,0.00,,,0.00,Rainwise IP-100,2013-01-21 22:19:00,
2013-01-21 15:24:00,52.4,11.0,25.76,SSW,202,7.2,12.1,19,0.00,,,0.00,Rainwise IP-100,2013-01-21 22:24:00,
2013-01-21 15:29:00,52.4,11.0,25.76,SSW,202,5.1,17.0,19,0.00,,,0.00,Rainwise IP-100,2013-01-21 22:29:00,
2013-01-21 15:34:00,52.3,11.0,25.76,WSW,247,8.4,13.3,19,0.00,,,0.00,Rainwise IP-100,2013-01-21 22:34:00,
2013-01-21 15:39:00,52.3,11.0,25.76,SSW,202,9.1,12.1,19,0.00,,,0.00,Rainwise IP-100,2013-01-21 22:39:00,
2013-01-21 15:44:00,52.2,11.0,25.76,SSW,202,9.1,13.5,19,0.00,,,0.00,Rainwise IP-100,2013-01-21 22:44:00,
2013-01-21 15:49:00,52.0,11.0,25.76,SSW,202,8.9,13.5,19,0.00,,,0.00,Rainwise IP-100,2013-01-21 22:49:00,
2013-01-21 15:54:00,52.0,11.0,25.75,SSW,202,7.0,11.2,19,0.00,,,0.00,Rainwise IP-100,2013-01-21 22:54:00,
2013-01-21 15:59:00,52.0,11.0,25.75,SSW,202,2.6,12.8,19,0.00,,,0.00,Rainwise IP-100,2013-01-21 22:59:00,
2013-01-21 16:04:00,51.9,11.0,25.75,SSW,202,5.4,12.4,19,0.00,,,0.00,Rainwise IP-100,2013-01-21 23:04:00,
2013-01-21 16:09:00,51.7,14.0,25.75,SSW,202,7.0,11.0,20,0.00,,,0.00,Rainwise IP-100,2013-01-21 23:09:00,
2013-01-21 16:14:00,51.5,14.0,25.75,SW,225,6.1,11.0,20,0.00,,,0.00,Rainwise IP-100,2013-01-21 23:14:00,
2013-01-21 16:19:00,51.3,14.0,25.75,SSW,202,5.8,10.0,20,0.00,,,0.00,Rainwise IP-100,2013-01-21 23:19:00,
2013-01-21 16:24:00,51.1,14.0,25.75,SSW,202,4.2,9.1,20,0.00,,,0.00,Rainwise IP-100,2013-01-21 23:24:00,
2013-01-21 16:29:00,50.8,14.0,25.75,SSW,202,4.9,7.9,20,0.00,,,0.00,Rainwise IP-100,2013-01-21 23:29:00,
2013-01-21 16:34:00,50.4,11.0,25.75,SW,225,6.1,7.7,20,0.00,,,0.00,Rainwise IP-100,2013-01-21 23:34:00,
2013-01-21 16:39:00,50.0,14.0,25.75,WSW,247,4.9,8.4,21,0.00,,,0.00,Rainwise IP-100,2013-01-21 23:39:00,
2013-01-21 16:44:00,49.5,14.0,25.75,SW,225,4.2,8.2,21,0.00,,,0.00,Rainwise IP-100,2013-01-21 23:44:00,
2013-01-21 16:49:00,49.0,11.0,25.74,SSW,202,3.3,6.3,21,0.00,,,0.00,Rainwise IP-100,2013-01-21 23:49:00,
2013-01-21 16:54:00,48.4,11.0,25.75,South,180,2.8,6.3,21,0.00,,,0.00,Rainwise IP-100,2013-01-21 23:54:00,
2013-01-21 16:59:00,47.5,11.0,25.74,SSW,202,3.0,7.7,22,0.00,,,0.00,Rainwise IP-100,2013-01-21 23:59:00,
2013-01-21 17:04:00,46.6,11.0,25.74,SSW,202,2.3,5.1,22,0.00,,,0.00,Rainwise IP-100,2013-01-22 00:04:00,
2013-01-21 17:09:00,45.8,11.0,25.74,SSW,202,3.7,5.8,22,0.00,,,0.00,Rainwise IP-100,2013-01-22 00:09:00,
2013-01-21 17:14:00,45.0,11.0,25.74,SSW,202,4.2,5.8,23,0.00,,,0.00,Rainwise IP-100,2013-01-22 00:14:00,
2013-01-21 17:19:00,44.2,11.0,25.74,SSW,202,4.2,4.9,23,0.00,,,0.00,Rainwise IP-100,2013-01-22 00:19:00,
2013-01-21 17:24:00,43.3,11.0,25.74,SSW,202,3.5,5.6,24,0.00,,,0.00,Rainwise IP-100,2013-01-22 00:24:00,
2013-01-21 17:29:00,42.7,11.0,25.74,SSW,202,2.6,5.6,25,0.00,,,0.00,Rainwise IP-100,2013-01-22 00:29:00,
2013-01-21 17:34:00,42.0,11.0,25.74,SSW,202,5.4,7.5,25,0.00,,,0.00,Rainwise IP-100,2013-01-22 00:34:00,
2013-01-21 17:39:00,41.3,11.0,25.74,SSW,202,4.4,5.8,26,0.00,,,0.00,Rainwise IP-100,2013-01-22 00:39:00,
2013-01-21 17:44:00,40.5,11.0,25.74,SSW,202,3.7,6.3,26,0.00,,,0.00,Rainwise IP-100,2013-01-22 00:44:00,
2013-01-21 17:49:00,39.7,11.0,25.74,SSW,202,3.7,6.8,27,0.00,,,0.00,Rainwise IP-100,2013-01-22 00:49:00,
2013-01-21 17:54:00,39.3,11.0,25.74,SSW,202,5.1,9.8,28,0.00,,,0.00,Rainwise IP-100,2013-01-22 00:54:00,
2013-01-21 17:59:00,39.2,11.0,25.74,WSW,247,5.6,8.2,28,0.00,,,0.00,Rainwise IP-100,2013-01-22 00:59:00,
2013-01-21 18:04:00,39.3,11.0,25.75,SW,225,5.1,8.6,29,0.00,,,0.00,Rainwise IP-100,2013-01-22 01:04:00,
2013-01-21 18:09:00,39.1,11.0,25.75,WSW,247,5.8,7.9,29,0.00,,,0.00,Rainwise IP-100,2013-01-22 01:09:00,
2013-01-21 18:14:00,38.3,11.0,25.75,SW,225,4.4,7.9,29,0.00,,,0.00,Rainwise IP-100,2013-01-22 01:14:00,
2013-01-21 18:19:00,37.9,11.0,25.74,SW,225,3.7,8.9,30,0.00,,,0.00,Rainwise IP-100,2013-01-22 01:19:00,
2013-01-21 18:24:00,38.0,11.0,25.75,WSW,247,3.3,6.5,31,0.00,,,0.00,Rainwise IP-100,2013-01-22 01:24:00,
2013-01-21 18:29:00,37.6,11.0,25.75,WSW,247,4.0,5.8,31,0.00,,,0.00,Rainwise IP-100,2013-01-22 01:29:00,
2013-01-21 18:34:00,36.8,11.0,25.75,WSW,247,1.9,4.4,32,0.00,,,0.00,Rainwise IP-100,2013-01-22 01:34:00,
2013-01-21 18:39:00,36.0,11.0,25.75,West,270,2.3,3.0,33,0.00,,,0.00,Rainwise IP-100,2013-01-22 01:39:00,
2013-01-21 18:44:00,35.2,11.0,25.75,WNW,292,3.3,4.4,34,0.00,,,0.00,Rainwise IP-100,2013-01-22 01:44:00,
2013-01-21 18:49:00,34.7,11.0,25.74,West,270,3.3,4.9,35,0.00,,,0.00,Rainwise IP-100,2013-01-22 01:49:00,
2013-01-21 18:54:00,34.3,11.0,25.75,WNW,292,4.4,4.9,35,0.00,,,0.00,Rainwise IP-100,2013-01-22 01:54:00,
2013-01-21 18:59:00,33.7,11.0,25.74,West,270,1.6,5.1,36,0.00,,,0.00,Rainwise IP-100,2013-01-22 01:59:00,
2013-01-21 19:04:00,33.2,11.0,25.75,West,270,2.6,3.3,36,0.00,,,0.00,Rainwise IP-100,2013-01-22 02:04:00,
2013-01-21 19:09:00,33.0,11.0,25.75,West,270,2.6,3.7,37,0.00,,,0.00,Rainwise IP-100,2013-01-22 02:09:00,
2013-01-21 19:14:00,33.1,11.0,25.75,WNW,292,1.9,3.3,38,0.00,,,0.00,Rainwise IP-100,2013-01-22 02:14:00,
2013-01-21 19:19:00,32.3,11.0,25.75,NNW,337,5.1,5.6,37,0.00,,,0.00,Rainwise IP-100,2013-01-22 02:19:00,
2013-01-21 19:24:00,31.4,8.0,25.75,NNW,337,3.0,5.4,38,0.00,,,0.00,Rainwise IP-100,2013-01-22 02:24:00,
2013-01-21 19:29:00,31.3,11.0,25.75,NNW,337,6.1,6.3,39,0.00,,,0.00,Rainwise IP-100,2013-01-22 02:29:00,
2013-01-21 19:34:00,30.9,11.0,25.74,NNW,337,4.9,7.0,39,0.00,,,0.00,Rainwise IP-100,2013-01-22 02:34:00,
2013-01-21 19:39:00,31.7,11.0,25.74,WNW,292,4.7,6.8,39,0.00,,,0.00,Rainwise IP-100,2013-01-22 02:39:00,
2013-01-21 19:44:00,33.3,11.0,25.75,WNW,292,5.1,6.3,38,0.00,,,0.00,Rainwise IP-100,2013-01-22 02:44:00,
2013-01-21 19:49:00,34.2,14.0,25.75,WNW,292,4.7,7.0,38,0.00,,,0.00,Rainwise IP-100,2013-01-22 02:49:00,
2013-01-21 19:54:00,34.7,11.0,25.75,WNW,292,3.7,5.8,37,0.00,,,0.00,Rainwise IP-100,2013-01-22 02:54:00,
2013-01-21 19:59:00,33.9,11.0,25.75,NE,45,3.0,5.1,36,0.00,,,0.00,Rainwise IP-100,2013-01-22 02:59:00,
2013-01-21 20:04:00,31.3,8.0,25.75,NE,45,2.3,6.3,37,0.00,,,0.00,Rainwise IP-100,2013-01-22 03:04:00,
2013-01-21 20:09:00,30.7,11.0,25.74,NNW,337,3.5,3.7,39,0.00,,,0.00,Rainwise IP-100,2013-01-22 03:09:00,
2013-01-21 20:14:00,32.0,11.0,25.74,WNW,292,3.0,4.4,40,0.00,,,0.00,Rainwise IP-100,2013-01-22 03:14:00,
2013-01-21 20:19:00,31.9,11.0,25.74,WNW,292,1.4,3.7,39,0.00,,,0.00,Rainwise IP-100,2013-01-22 03:19:00,
2013-01-21 20:24:00,31.2,11.0,25.74,WNW,292,0.0,3.3,39,0.00,,,0.00,Rainwise IP-100,2013-01-22 03:24:00,
2013-01-21 20:29:00,29.7,11.0,25.74,WNW,292,0.0,1.4,39,0.00,,,0.00,Rainwise IP-100,2013-01-22 03:29:00,
2013-01-21 20:34:00,28.5,8.0,25.74,WNW,292,1.4,0.0,40,0.00,,,0.00,Rainwise IP-100,2013-01-22 03:34:00,
2013-01-21 20:39:00,28.8,11.0,25.74,WNW,292,2.1,2.8,41,0.00,,,0.00,Rainwise IP-100,2013-01-22 03:39:00,
2013-01-21 20:44:00,29.7,11.0,25.75,WNW,292,2.8,3.3,41,0.00,,,0.00,Rainwise IP-100,2013-01-22 03:44:00,
2013-01-21 20:49:00,29.4,8.0,25.75,WNW,292,3.0,4.2,40,0.00,,,0.00,Rainwise IP-100,2013-01-22 03:49:00,
2013-01-21 20:54:00,28.0,8.0,25.75,NNW,337,2.6,4.0,40,0.00,,,0.00,Rainwise IP-100,2013-01-22 03:54:00,
2013-01-21 20:59:00,26.4,8.0,25.75,NNW,337,3.3,4.0,41,0.00,,,0.00,Rainwise IP-100,2013-01-22 03:59:00,
2013-01-21 21:04:00,25.8,8.0,25.75,NW,315,3.0,4.4,42,0.00,,,0.00,Rainwise IP-100,2013-01-22 04:04:00,
2013-01-21 21:09:00,25.7,8.0,25.75,NW,315,2.3,3.5,43,0.00,,,0.00,Rainwise IP-100,2013-01-22 04:09:00,
2013-01-21 21:14:00,25.9,8.0,25.75,WNW,292,4.2,4.9,44,0.00,,,0.00,Rainwise IP-100,2013-01-22 04:14:00,
2013-01-21 21:19:00,26.5,11.0,25.74,WNW,292,6.3,6.3,44,0.00,,,0.00,Rainwise IP-100,2013-01-22 04:19:00,
2013-01-21 21:24:00,27.7,11.0,25.75,WNW,292,5.6,7.2,44,0.00,,,0.00,Rainwise IP-100,2013-01-22 04:24:00,
2013-01-21 21:29:00,28.2,11.0,25.74,WNW,292,5.1,6.5,44,0.00,,,0.00,Rainwise IP-100,2013-01-22 04:29:00,
2013-01-21 21:34:00,27.7,11.0,25.75,WNW,292,5.1,6.5,44,0.00,,,0.00,Rainwise IP-100,2013-01-22 04:34:00,
2013-01-21 21:39:00,26.8,11.0,25.75,WNW,292,4.7,6.3,44,0.00,,,0.00,Rainwise IP-100,2013-01-22 04:39:00,
2013-01-21 21:44:00,25.9,8.0,25.74,WNW,292,5.4,5.4,44,0.00,,,0.00,Rainwise IP-100,2013-01-22 04:44:00,
2013-01-21 21:49:00,25.7,8.0,25.74,WNW,292,4.4,6.3,45,0.00,,,0.00,Rainwise IP-100,2013-01-22 04:49:00,
2013-01-21 21:54:00,25.7,8.0,25.74,WNW,292,2.8,6.3,46,0.00,,,0.00,Rainwise IP-100,2013-01-22 04:54:00,
2013-01-21 21:59:00,25.4,8.0,25.74,West,270,3.3,6.1,46,0.00,,,0.00,Rainwise IP-100,2013-01-22 04:59:00,
2013-01-21 22:00:00,25.4,8.0,25.74,West,270,3.0,6.1,46,0.00,,,0.00,Rainwise IP-100,2013-01-22 05:00:00,
2013-01-21 22:05:00,25.0,11.0,25.74,WNW,292,4.4,4.7,47,0.00,,,0.00,Rainwise IP-100,2013-01-22 05:05:00,
2013-01-21 22:10:00,25.0,11.0,25.74,WNW,292,2.6,4.7,47,0.00,,,0.00,Rainwise IP-100,2013-01-22 05:10:00,
2013-01-21 22:15:00,25.4,11.0,25.74,West,270,3.7,5.4,48,0.00,,,0.00,Rainwise IP-100,2013-01-22 05:15:00,
2013-01-21 22:20:00,25.4,11.0,25.74,WNW,292,3.3,4.9,48,0.00,,,0.00,Rainwise IP-100,2013-01-22 05:20:00,
2013-01-21 22:25:00,25.0,11.0,25.74,West,270,4.0,4.4,48,0.00,,,0.00,Rainwise IP-100,2013-01-22 05:25:00,
2013-01-21 22:30:00,24.2,8.0,25.75,WNW,292,2.6,4.4,48,0.00,,,0.00,Rainwise IP-100,2013-01-22 05:30:00,
2013-01-21 22:32:00,24.0,8.0,25.74,WNW,292,3.7,4.4,48,0.00,,,0.00,Rainwise IP-100,2013-01-22 05:32:00,
2013-01-21 22:37:00,23.1,8.0,25.75,WNW,292,3.0,4.2,49,0.00,,,0.00,Rainwise IP-100,2013-01-22 05:37:00,
2013-01-21 22:42:00,22.4,8.0,25.75,West,270,2.6,3.7,50,0.00,,,0.00,Rainwise IP-100,2013-01-22 05:42:00,
2013-01-21 22:47:00,22.4,8.0,25.74,West,270,1.6,4.7,51,0.00,,,0.00,Rainwise IP-100,2013-01-22 05:47:00,
2013-01-21 22:52:00,22.8,8.0,25.74,West,270,5.8,5.8,52,0.00,,,0.00,Rainwise IP-100,2013-01-22 05:52:00,
2013-01-21 22:57:00,23.2,8.0,25.74,West,270,4.2,5.8,52,0.00,,,0.00,Rainwise IP-100,2013-01-22 05:57:00,
2013-01-21 23:02:00,23.6,11.0,25.74,West,270,3.5,5.1,52,0.00,,,0.00,Rainwise IP-100,2013-01-22 06:02:00,
2013-01-21 23:07:00,24.0,11.0,25.74,WNW,292,4.9,6.1,51,0.00,,,0.00,Rainwise IP-100,2013-01-22 06:07:00,
2013-01-21 23:12:00,24.2,11.0,25.74,West,270,3.7,7.0,51,0.00,,,0.00,Rainwise IP-100,2013-01-22 06:12:00,
2013-01-21 23:17:00,23.9,11.0,25.74,West,270,4.4,5.1,51,0.00,,,0.00,Rainwise IP-100,2013-01-22 06:17:00,
2013-01-21 23:22:00,23.6,11.0,25.74,WNW,292,6.1,6.5,51,0.00,,,0.00,Rainwise IP-100,2013-01-22 06:22:00,
2013-01-21 23:27:00,23.3,8.0,25.74,WNW,292,4.2,6.8,51,0.00,,,0.00,Rainwise IP-100,2013-01-22 06:27:00,
2013-01-21 23:32:00,23.0,8.0,25.74,WNW,292,6.1,7.5,51,0.00,,,0.00,Rainwise IP-100,2013-01-22 06:32:00,
2013-01-21 23:37:00,23.0,8.0,25.74,WNW,292,5.6,7.0,52,0.00,,,0.00,Rainwise IP-100,2013-01-22 06:37:00,
2013-01-21 23:42:00,23.8,11.0,25.73,NW,315,6.3,7.9,51,0.00,,,0.00,Rainwise IP-100,2013-01-22 06:42:00,
2013-01-21 23:47:00,24.5,11.0,25.74,WNW,292,6.3,8.2,51,0.00,,,0.00,Rainwise IP-100,2013-01-22 06:47:00,
2013-01-21 23:51:00,24.9,11.0,25.73,WNW,292,8.4,9.1,50,0.00,,,0.00,Rainwise IP-100,2013-01-22 06:51:00,
2013-01-21 23:56:00,25.2,11.0,25.74,WNW,292,5.4,9.3,50,0.00,,,0.00,Rainwise IP-100,2013-01-22 06:56:00,